Regional Weather Roundup
Issued by NWS New Orleans/Baton Rouge, LA

Home | Current Version | Previous Version | Text Only | Print | Product List | Glossary Off
Versions: 1 2 3 4 5 6 7 8 9 10 11 12 13 14 15 16 17 18 19 20 21 22 23 24 25 26 27 28 29 30 31 32 33 34 35 36 37 38 39 40 41 42 43 44 45 46 47 48 49 50

538
ASUS44 KLIX 150901
RWRLIX
NEW ORLEANS REGIONAL WEATHER ROUNDUP
NATIONAL WEATHER SERVICE NEW ORLEANS LA
400 AM CDT MON SEP 15 2014

NOTE: "FAIR" INDICATES FEW OR NO CLOUDS BELOW 12,000 FEET WITH NO
      SIGNIFICANT WEATHER AND/OR OBSTRUCTIONS TO VISIBILITY.
      SKY/WX - SKY CONDITION AND SIGNIFICANT WEATHER.
      TMP - AIR TEMPERATURE.     DP    - DEWPOINT TEMPERATURE.
      RH  - RELATIVE HUMIDITY.   PRES  - PRESSURE.
      HI  - HEAT INDEX.          WCI   - WIND CHILL INDEX.

*  THESE STATIONS ARE NOT NWS OR FAA STATIONS AND ARE NOT UNDER
   NWS QUALITY CONTROL.

LAZ038-040-048-061>063-065>067-069-151000-
SOUTHEAST LOUISIANA

CITY           SKY/WX    TMP DP  RH WIND       PRES   REMARKS
N.O. AUDUBON   NOT AVBL
N.O. INTL ARPT PTCLDY    80  75  84 NE3       30.05F
N.O. LAKEFRONT CLEAR     82  77  84 NE10      30.06F
N.O. DOWNTOWN*   N/A     81  73  78 CALM      30.06F
SLIDELL        CLEAR     74  72  93 N3        30.06F
BATON ROUGE    CLEAR     73  70  90 NE3       30.08S
BOOTHVILLE     CLEAR     81  77  88 SE3       30.05F
BELLE CHASSE   PTCLDY    76  72  87 CALM      30.05F
BOGALUSA*        N/A     74  70  88 CALM      30.09F FOG
GALLIANO*      NOT AVBL
NEW ROADS*       N/A     71  70  96 CALM      30.09R FOG
GONZALES*        N/A     74  74 100 CALM      30.06F
HAMMOND*       NOT AVBL
HOUMA*         CLEAR     77  74  90 NE5       30.05F
PORT FOURCHON* MOSUNNY   81  73  78 E5        30.07S

$$

MSZ070-080>082-151000-
SOUTHERN MISSISSIPPI

CITY           SKY/WX    TMP DP  RH WIND       PRES   REMARKS
MCCOMB         CLEAR     73  69  87 N3        30.10S
GULFPORT       CLEAR     76  73  91 N3        30.06F
BILOXI         NOT AVBL
PASCAGOULA     CLEAR     74  73  97 CALM      30.07S

$$

COASTAL OBSERVATIONS
LAKE AND NEARSHORE STATIONS

STATION/POSITION TIME  TEMP    WIND        PRES    WAVE
                       AIR SEA DIR/SP/G            HT/PER
                 (UTC) (F)     (DEG/KT/KT) (MB)    (FT/S)
PASCAGOULA       0800   80      20/  7/  9 1017.5
WAVELAND YACHT   0800   79      50/ 10/ 11 1017.3
GRAND ISLE       0800   83 85  110/  6/ 10 1018.0
SOUTHWEST PASS   0800   83 90  130/  6/  9 1017.4
NEW CANAL        0800   82 82   50/  8/  9 1018.2
SHELL BEACH      0800   83 80   80/  6/  7 1017.5

OFFSHORE STATIONS

STATION/POSITION TIME  TEMP    WIND        PRES    WAVE
                       AIR SEA DIR/SP/G            HT/PER
                 (UTC) (F)     (DEG/KT/KT) (MB)    (FT/S)
64 S DAUPHIN ISL 0759   84 86  120/  8/  8 1017.8    3/ 7

$$




USA.gov is the U.S. government's official web portal to all federal, state and local government web resources and services.